Flag for Sweden Weather past 2 weeks in Gothenburg, Sweden

Now
57 °F

Partly sunny.


Feels Like: 55 °F
Forecast: 46 / 59 °F
Wind: 12 mph from Southeast

Location: Gothenburg / Save

Current Time: Oct 1, 2014 at 2:39:14 PM

Latest Report: Oct 1, 2014 at 1:50 PM


Visibility: N/A

Pressure: 30.30 "Hg

Humidity: 67%

Dew point: 46 °F

Location of GothenburgLocation

Historic Weather in Gothenburg — Graph

°F

Gothenburg temperature yesterday

Maximum temperature yesterday: 63 °F (at 2:50 PM)
Minimum temperature yesterday: 39 °F (at 1:50 AM)
Average temperature yesterday: 49 °F

Past Weeks' High & Low Weather Summary

 TemperatureHumidityPressure
High68 °F (Sep 18, 2:20 PM)100% (Sep 17, 7:20 AM)30.33 "Hg (Sep 17, 7:20 AM)
Low32 °F (Sep 23, 4:20 AM)38% (Sep 22, 3:20 PM)29.53 "Hg (Sep 25, 4:20 AM)
Average54 °F79%30.00 "Hg
* Reported Sep 16 1:20 PM — Oct 1 1:20 PM, Gothenburg, Weather by CustomWeather, © 2014

Note: Actual official high and low records may vary slightly from our data, if they occured in-between our weather recording intervals... More about our weather records

Advertising

Gothenburg weather history for previous 24 hours

 ConditionsComfort  
Time TempWeatherWind HumidityBarometerVisibility
1:20 PM
Oct 1
57 °FScattered clouds.12 mph67%30.30 "HgN/A
12:50 PM57 °FSunny.12 mph67%30.30 "Hg10 mi
12:20 PM57 °FSunny.10 mph67%30.30 "Hg10 mi
11:50 AM55 °FSunny.12 mph72%30.33 "Hg10 mi
11:20 AM55 °FSunny.12 mph72%30.33 "Hg10 mi
10:50 AM55 °FSunny.10 mph72%30.33 "Hg10 mi
10:20 AM52 °FSunny.10 mph82%30.33 "Hg10 mi
9:50 AM50 °FSunny.10 mph88%30.33 "Hg10 mi
9:20 AM50 °FScattered clouds.12 mph82%30.33 "HgN/A
8:50 AM48 °FPassing clouds.12 mph87%30.33 "HgN/A
8:20 AM46 °FPassing clouds.10 mph87%30.33 "HgN/A
7:50 AM45 °FClear.10 mph93%30.33 "Hg10 mi
7:20 AM45 °FClear.9 mph93%30.33 "Hg10 mi
6:50 AM45 °FClear.9 mph87%30.33 "Hg10 mi
6:20 AM45 °FClear.7 mph87%30.33 "Hg10 mi
5:50 AM45 °FClear.7 mph87%30.33 "Hg10 mi
5:20 AM45 °FClear.9 mph81%30.33 "Hg10 mi
4:50 AM46 °FClear.9 mph76%30.33 "Hg10 mi
4:20 AM46 °FClear.9 mph71%30.33 "Hg10 mi
3:50 AM46 °FClear.9 mph71%30.33 "Hg10 mi
3:20 AM46 °FClear.9 mph71%30.33 "Hg10 mi
2:50 AM46 °FClear.8 mph76%30.33 "Hg10 mi
2:20 AM46 °FClear.8 mph82%30.33 "Hg10 mi
1:50 AM46 °FClear.7 mph82%30.33 "Hg10 mi
1:20 AM48 °FClear.8 mph76%30.33 "Hg10 mi
12:50 AM46 °FClear.6 mph76%30.33 "Hg10 mi
12:20 AM48 °FClear.7 mph71%30.33 "Hg10 mi
11:56 PM
Sep 30
48 °FClear.7 mph71%30.33 "Hg10 mi
11:20 PM48 °FClear.7 mph71%30.33 "Hg10 mi
10:50 PM48 °FClear.7 mph71%30.33 "Hg10 mi
10:20 PM48 °FClear.6 mph76%30.33 "Hg10 mi
9:50 PM48 °FClear.6 mph76%30.33 "Hg10 mi
9:20 PM48 °FClear.7 mph82%30.33 "Hg10 mi
8:50 PM46 °FClear.2 mph82%30.33 "Hg10 mi
8:20 PM46 °FClear.3 mph82%30.33 "Hg10 mi
7:50 PM50 °FClear.3 mph76%30.30 "Hg10 mi
7:20 PM52 °FSunny.3 mph72%30.30 "Hg10 mi
6:50 PM55 °FSunny.3 mph59%30.30 "Hg10 mi
6:20 PM57 °FSunny.5 mph55%30.30 "Hg10 mi
5:50 PM59 °FSunny.6 mph51%30.30 "Hg10 mi
5:20 PM61 °FSunny.8 mph48%30.30 "Hg10 mi
4:50 PM61 °FSunny.9 mph48%30.30 "Hg10 mi
4:20 PM61 °FSunny.8 mph45%30.30 "Hg10 mi
3:50 PM63 °FSunny.8 mph42%30.30 "Hg10 mi
3:27 PM63 °FPassing clouds.9 mph42%30.30 "HgN/A
2:50 PM63 °FSunny.9 mph42%30.30 "Hg10 mi
2:20 PM61 °FPassing clouds.9 mph42%30.30 "HgN/A
Weather by CustomWeather, © 2014

See weather overviewHow to use our weather pages